星链-34657 (STARLINK-34657)

导读 | 豆包AI

STARLINK-34657是美国SpaceX公司星链星座中的一颗低轨通信卫星,于2025年7月8日发射入轨,属于星链全球组网的组成部分。星链星座旨在为全球提供高速低延迟宽带互联网服务,尤其覆盖基础设施匮乏的偏远地区,该卫星采用平板设计、霍尔推进技术,具备自主避撞能力,服役结束后会主动离轨在大气层焚毁,减少空间碎片影响。

基本信息
目录编号:
64775
目录名称:
STARLINK-34657
国际标识:
2025-147W
轨道中心:
EARTH
卫星名称:
星链-34657
卫星全名:
星链-34657 (STARLINK-34657)
卫星状态:
在轨 (已飞行295 天)
发射日期:
2025-07-08 UTC
国别 :
美国 (US)
星等 :
--
轨道信息
数据来源 国际轨道数据
星历时间: 2026-04-29T12:57:00+0800
8小时前
查看轨道信息
半长轴: 6851.566km
偏心率: 0.0002439
轨道倾角: 53.162°
近地点辐角 50.631°
升交点赤经 8.276°
平近点角 309.491°
近地点: 471.757km
远地点: 475.101km
周期: 94.069分钟
每日圈数: 15.307985
详细信息
固有亮度:
5
最大亮度:
2.5
卫星平台:
Starlink V1.0
覆盖范围:
全球
运营商:
太空探索技术公司
运营商所在国:
美国
制造商(研发单位):
太空探索技术公司
制造商所在国:
美国
使用方式:
暂无
卫星简介
Starlink 计划是 SpaceX 推出的全球卫星互联网项目,通过发射低轨道卫星,为全球尤其是偏远地区提供高速、低延迟的互联网服务。自 2019 年起,Starlink 已部署数千颗卫星,旨在缩小全球数字鸿沟,推动互联网普及。该项目还为军事、航空等行业提供通信支持,带来广泛经济效益。
2D轨道图
3D轨道图
轨道高度分析图
轨道倾角分析图
轨道综合分析图
查看轨道综合分析图